Regional Weather Roundup
Issued by NWS

Home | Current Version | Previous Version | Graphics & Text | Print | Product List | Glossary On
Versions: 1 2 3 4 5 6 7 8 9 10 11 12 13 14 15 16 17 18 19 20 21 22 23 24 25 26 27 28 29 30 31 32 33 34 35 36 37 38 39 40 41 42 43 44 45 46 47 48 49 50
000
ASUS43 KBIS 260510
RWRND

NORTH DAKOTA REGIONAL WEATHER ROUNDUP
NATIONAL WEATHER SERVICE BISMARCK ND
1200 AM CDT SUN APR 26 2015

NOTE: "FAIR" INDICATES FEW OR NO CLOUDS BELOW 12,000 FEET WITH NO
SIGNIFICANT WEATHER AND/OR OBSTRUCTIONS TO VISIBILITY.


NDZ001>003-009>011-017-260600-
NORTHWEST NORTH DAKOTA

CITY           SKY/WX    TMP DP  RH WIND       PRES   REMARKS
WILLISTON      CLOUDY    46  44  93 SW9       29.85R
MINOT          CLOUDY    48  41  76 SE12      29.89F
MINOT AFB      CLOUDY    48  47  99 SE13      29.88F
$$

NDZ018>021-031>035-040>046-260600-
SOUTHWEST NORTH DAKOTA

CITY           SKY/WX    TMP DP  RH WIND       PRES   REMARKS
BISMARCK       CLOUDY    48  43  82 SE8       29.93R
DICKINSON      LGT RAIN  44  42  93 W10       29.87R
GARRISON         N/A     46  43  89 SE9       29.89S
HETTINGER ARPT LGT RAIN  45  43  93 W5        29.91R
$$

NDZ004>008-012>016-024-026-027-054-260600-
NORTHEAST NORTH DAKOTA

CITY           SKY/WX    TMP DP  RH WIND       PRES   REMARKS
GRAND FORKS    CLEAR     46  33  60 SE9       29.98R
GRND FRKS AFB  CLEAR     37  32  81 SE1       29.98R
DEVILS LAKE    CLOUDY    46  39  76 SE6       29.96S
$$

NDZ022-023-025-028>030-036>039-047>053-260600-
SOUTHEAST NORTH DAKOTA

CITY           SKY/WX    TMP DP  RH WIND       PRES   REMARKS
FARGO          CLEAR     47  30  51 SE8       29.98R
JAMESTOWN      CLOUDY    48  40  73 S3        29.95S
$$




USA.gov is the U.S. government's official web portal to all federal, state and local government web resources and services.